sat.trackr.live / text

‹ back to catalog

STARLINK-37331

NORAD 68738 · 2026-082L

PAYLOAD ACTIVE UNKNOWN

§ Identity

Operator
Country
US
Launch date
2026-04-15
Launch site
AFWTR
Launch vehicle
Mass (kg)
RCS (m²)

Purposes: comms

External: N2YO · Heavens-Above · Gunter

§ Orbital elements

Epoch: 2026-09-20T01:02:10.111776Z

Period
93.90 min
Inclination
97.2864°
Eccentricity
0.0001615
Mean motion
15.33474068 rev/d
Perigee alt
464.4 km
Apogee alt
466.6 km
Semi-major
6,843.6 km
B*
7.2323e-4
RAAN
125.1715°
Arg perigee
89.9133°
Mean anomaly
270.2295°
Rev number
2,423

§ Raw data

STARLINK-373311 68738U 26082L   26263.04317259  .00023368  00000+0  72323-3 0  99912 68738  97.2864 125.1715 0001615  89.9133 270.2295 15.33474068 24237

JSON: /api/v1/satellites/68738 · /tle

For live sub-satellite position, see the globe view (requires WebGL).

§ Visibility from observer

Set your observer location to see the next 7 days of passes ≥ 10°. The values pass through the URL so the page stays shareable.

No JS? Fill the form by hand. The geolocation button needs JavaScript.